This demonstration page uses our WeatherBlox Daily Observations layout. Learn more.

Left ArrowRight Arrow

44.8408, -93.29828

Hourly Observations for July 21, 2021

Temp ( °F °C ) Dew Point ( °F °C ) Humidity (%) Winds ( mph kmh ) Pressure ( in mb ) Visibility ( mi km ) Precip ( " mm )
12:53 am 00:53 Mostly Cloudy with Smoke 71 21.7 62 16.7 73 73 E 7 11 30.11 1020 4 6 0.00 0.00
1:53 am 01:53 Mostly Cloudy with Smoke 69 20.6 61 16.1 76 76 E 8 13 30.09 1019 5 8 0.00 0.00
2:53 am 02:53 Mostly Cloudy 68 20 61 16.1 78 78 E 8 13 30.09 1019 7 11 0.00 0.00
3:53 am 03:53 Mostly Cloudy 67 19.4 60 15.6 79 79 E 8 13 30.09 1019 7 11 0.00 0.00
4:53 am 04:53 Mostly Cloudy 67 19.4 60 15.6 79 79 ENE 7 11 30.11 1020 7 11 0.00 0.00
5:53 am 05:53 Mostly Cloudy 66 18.9 59 15 78 78 ENE 8 13 30.12 1020 8 13 0.00 0.00
6:53 am 06:53 Cloudy 66 18.9 59 15 78 78 E 8 13 30.11 1020 7 11 0.00 0.00
7:53 am 07:53 Cloudy 67 19.4 59 15 76 76 E 8 13 30.11 1020 9 14 0.00 0.00
8:53 am 08:53 Mostly Cloudy 68 20 60 15.6 76 76 E 7 11 30.13 1020 9 14 0.00 0.00
9:53 am 09:53 Mostly Cloudy 70 21.1 60 15.6 71 71 ENE 8 13 30.14 1021 9 14 0.00 0.00
10:53 am 10:53 Mostly Cloudy 72 22.2 61 16.1 68 68 ESE 6 9 30.13 1020 9 14 0.00 0.00
11:53 am 11:53 Mostly Cloudy 75 23.9 63 17.2 66 66 SE 7 11 30.12 1020 9 14 0.00 0.00
12:53 pm 12:53 Mostly Cloudy 79 26.1 65 18.3 62 62 SE 6 9 30.10 1019 8 13 0.00 0.00
1:53 pm 13:53 Cloudy 79 26.1 65 18.3 62 62 ESE 5 7 30.09 1019 7 11 0.00 0.00
2:53 pm 14:53 Mostly Cloudy with Haze 83 28.3 67 19.4 59 59 SE 9 15 30.08 1019 6 10 0.00 0.00
3:53 pm 15:53 Mostly Cloudy with Haze 82 27.8 68 20 63 63 SE 10 17 30.07 1018 6 10 0.00 0.00
4:53 pm 16:53 Mostly Cloudy with Haze 83 28.3 68 20 61 61 S 12 19 30.05 1018 6 10 0.00 0.00
5:53 pm 17:53 Mostly Cloudy with Haze 83 28.3 68 20 61 61 SSE 12 19 30.04 1017 6 10 0.00 0.00
6:53 pm 18:53 Mostly Cloudy with Haze 82 27.8 69 20.6 65 65 SSE 10 17 30.04 1017 6 10 0.00 0.00
7:53 pm 19:53 Mostly Cloudy with Haze 80 26.7 69 20.6 69 69 SE 13 20 30.04 1017 6 10 0.00 0.00
8:53 pm 20:53 Mostly Cloudy with Haze 78 25.6 69 20.6 74 74 SSE 13 20 30.05 1018 6 10 0.00 0.00
9:53 pm 21:53 Mostly Cloudy with Haze 77 25 69 20.6 77 77 SE 10 17 30.05 1018 6 10 0.00 0.00
10:53 pm 22:53 Mostly Cloudy with Haze 76 24.4 69 20.6 79 79 SE 10 17 30.06 1018 6 10 0.00 0.00
11:53 pm 23:53 Mostly Cloudy with Haze 74 23.3 69 20.6 85 85 SSE 12 19 30.06 1018 6 10 0.00 0.00

Powered by AerisWeather